Regional Weather Roundup
Issued by NWS

Home | Current Version | Previous Version | Graphics & Text | Print | Product List | Glossary On
Versions: 1 2 3 4 5 6 7 8 9 10 11 12 13 14 15 16 17 18 19 20 21 22 23 24 25 26 27 28 29 30 31 32 33 34 35 36 37 38 39 40 41 42 43 44 45 46 47 48 49 50
000
ASUS45 KTFX 300719
RWRMT
MONTANA REGIONAL WEATHER ROUNDUP
NATIONAL WEATHER SERVICE GREAT FALLS MT
100 AM MDT SUN AUG 30 2015

NOTE: "FAIR" INDICATES FEW OR NO CLOUDS BELOW 12000 FEET WITH NO
SIGNIFICANT WEATHER AND/OR OBSTRUCTIONS TO VISIBILITY.

MTZ001>007-043-300800-
WEST OF THE DIVIDE

CITY           SKY/WX    TMP DP  RH WIND       PRES   REMARKS
KALISPELL      LGT RAIN  62  48  60 S8        29.86R
MISSOULA       MOCLDY    61  51  70 NW15      29.87F
BUTTE          CLOUDY    61  43  51 NE3       29.97R HAZE
MULLAN PASS    LGT RAIN  49  40  71 VRB5      29.98S
DEER LODGE       N/A     61  45  55 CALM      29.95S
EUREKA           N/A     61  43  51 S8        29.82F
HAMILTON         N/A     66  48  52 NW8       29.87R
LIBBY            N/A     55  46  71 CALM      29.84S
PLAINS           N/A     60  51  72 MISG      29.89R
THOMPSON FALLS   N/A     57  54  90 CALM      29.94R
$$

MTZ008-052>055-300800-
SOUTHWEST MONTANA

CITY           SKY/WX    TMP DP  RH WIND       PRES   REMARKS
BOZEMAN        CLOUDY    72  42  34 E5        29.84S
DILLON         MOCLDY    74  42  31 S18G28    29.90R
W YELLOWSTONE  CLOUDY    54  50  87 NW3       30.11F
THREE FORKS      N/A     70  50  49 W10       29.85R
TWIN BRIDGES     N/A     73  42  32 SE7       29.88S
$$

MTZ009-010-012-014-046-048-049-054-300800-
EAST SLOPES AND CENTRAL MONTANA

CITY           SKY/WX    TMP DP  RH WIND       PRES   REMARKS
CUT BANK       PTCLDY    63  43  48 W15       29.82R
GREAT FALLS    PTCLDY    63  50  62 W8        29.81R HAZE
MALMSTROM AFB  MOCLDY    62  50  64 SW7       29.80S
HELENA         CLOUDY    64  48  56 W6        29.86R HAZE
CONRAD           N/A     63  49  60 W7        29.86R
$$

MTZ011-013-016-021-045-047-050-051-300800-
NORTH CENTRAL MONTANA

CITY           SKY/WX    TMP DP  RH WIND       PRES   REMARKS
HAVRE          CLOUDY    68  54  60 MISG      29.71R
LEWISTOWN      CLOUDY    63  50  62 SE7       29.82S
N BAR RANCH      N/A     66  43  42 CALM      29.85F
CHINOOK          N/A     68  57  68 CALM      29.69S
FORT BENTON      N/A     64  55  72 CALM      29.76S
$$

MTZ017>020-022>027-061-062-300800-
NORTHEAST MONTANA

CITY           SKY/WX    TMP DP  RH WIND       PRES   REMARKS
GLASGOW        PTCLDY    74  47  38 N3        29.69S HAZE
JORDAN           N/A     70  42  36 CALM      29.70F
SIDNEY         MOCLDY    68  54  60 CALM      29.69F
WOLF POINT     CLOUDY    68  50  52 CALM      29.66F HAZE
MALTA            N/A     70  56  61 CALM      29.65F
PLENTYWOOD       N/A     77  50  38 E9        29.69F
POPLAR           N/A     73  52  46 E6        29.66F
SCOBEY           N/A     76  47  35 SE5       29.71F
$$

MTZ028>42-056>058-300800-
SOUTHCENTRAL AND SOUTHEAST MONTANA

CITY           SKY/WX    TMP DP  RH WIND       PRES   REMARKS
BAKER          MOCLDY    71  49  45 SE9       29.79F
BILLINGS       CLOUDY    80  39  23 W14       29.80R
LIVINGSTON     MOCLDY    79  41  25 S21G32    29.83S
MILES CITY     CLOUDY    82  47  29 SE15G23   29.70F
EKALAKA          N/A     81  38  21 SE13      29.82F
FORSYTH          N/A     77  41  27 CALM      29.69S
LAUREL           N/A     75  40  28 CALM      29.80S
ROUNDUP          N/A     71  40  32 CALM      29.72R
$$

REGIONAL REPORTS...DAKOTAS

CITY           SKY/WX    TMP DP  RH WIND       PRES   REMARKS
WILLISTON      MOCLDY    65  53  65 CALM      29.71F HAZE
MINOT          CLOUDY    80  60  50 S7        29.73S
DICKINSON      PTCLDY    65  53  65 S8        29.78
BEACH            N/A     68  48  49 SE9       29.77F
CROSBY           N/A     63  50  63 E3        29.72F HAZE
BISMARCK       MOCLDY    66  63  90 SE8       29.80S
GRAND FORKS    PTCLDY    68  66  93 S9        29.78F
FARGO          PTCLDY    68  64  87 S12       29.84F
BUFFALO SD       N/A     69  51  52 S9        29.77F
RAPID CITY     PTCLDY    70  44  39 S8        29.90F
$$

REGIONAL REPORTS...WYOMING/IDAHO/WASHINGTON

CITY           SKY/WX    TMP DP  RH WIND       PRES   REMARKS
GILLETTE       MOCLDY    73  36  25 S18       29.89F
SHERIDAN       CLOUDY    62  45  53 S5        29.83F
BUFFALO WY     CLOUDY    72  36  26 E5        29.93S
CODY           CLOUDY    75  41  29 NW3       29.93S
YELLOWSTONE LA   N/A     52  48  86 W9G31     30.29R
IDAHO FALLS    CLOUDY    62  56  80 SE5       29.91F
SALMON         CLOUDY    66  43  42 E5        29.81F
BOISE          CLOUDY    73  50  44 S5        29.87R
SPOKANE        PTCLDY    60  44  55 S10       29.83S
$$

REGIONAL REPORTS...ALBERTA

CITY           SKY/WX    TMP DP  RH WIND       PRES   REMARKS
EDMONTON       CLEAR     55  50  82 W5        29.45R
CALGARY        CLEAR     54  37  54 S12       29.62S
LETHBRIDGE     PTCLDY    57  39  51 S8        29.74R
MEDICINE HAT   CLEAR     68  46  45 S8        29.70S
WATERTON GATE    N/A     63  34  34 SW28G41     N/A
CARDSTON         N/A     55  36  47 SW5         N/A
MILK RIVER       N/A     61  41  48 W7          N/A
ONEFOUR          N/A     66  43  42 NW20        N/A
$$

REGIONAL REPORTS...SASKATCHEWAN

CITY           SKY/WX    TMP DP  RH WIND       PRES   REMARKS
SWIFT CURRENT  CLEAR     72  50  46 NW8       29.68F HAZE
REGINA         CLOUDY    68  54  60 SE8       29.68R SMOKE
SASKATOON      CLOUDY    72  52  49 S16G22    29.66R
CYPRESS HILLS    N/A     66  41  39 NW6         N/A
VAL MARIE        N/A     73  52  46 S7          N/A
ROCKGLEN         N/A     66  54  63 SW8         N/A
ASSINIBOIA       N/A     61  52  72 S10         N/A
$$


USA.gov is the U.S. government's official web portal to all federal, state and local government web resources and services.